Satellite: ASTRA 1B
Catalog number: 21139
Epoch time:      103041.00000000
Element set:     160 
Inclination:        0.0122 deg
RA of node:       319.8851 deg
Eccentricity:    0.0002995
Arg of perigee:    65.1991 deg
Mean anomaly:     133.7503 deg
Mean motion:    1.00273184 rev/day
Decay rate:    1.2900E-006 rev/day^2
Epoch rev:            3210
Checksum:              209

Satellite: METEOSAT 5 (MO
Catalog number: 21140
Epoch time:      103040.92294638
Element set:     712 
Inclination:        5.6097 deg
RA of node:        70.0061 deg
Eccentricity:    0.0002047
Arg of perigee:   146.6131 deg
Mean anomaly:     318.0024 deg
Mean motion:    1.00271995 rev/day
Decay rate:    2.7999E-007 rev/day^2
Epoch rev:            4596
Checksum:              386

Satellite: NOAA 12
Catalog number: 21263
Epoch time:      103042.04126976
Element set:     964 
Inclination:       98.6251 deg
RA of node:        31.7959 deg
Eccentricity:    0.0013686
Arg of perigee:    45.7430 deg
Mean anomaly:     314.4870 deg
Mean motion:   14.25075045 rev/day
Decay rate:    3.3199E-006 rev/day^2
Epoch rev:           61014
Checksum:              303

Satellite: OSCAR 22 (UoSA
Catalog number: 21575
Epoch time:      103041.85996060
Element set:     722 
Inclination:       98.1402 deg
RA of node:        34.3706 deg
Eccentricity:    0.0007716
Arg of perigee:   149.2413 deg
Mean anomaly:     210.9229 deg
Mean motion:   14.39148158 rev/day
Decay rate:    3.3100E-006 rev/day^2
Epoch rev:           60717
Checksum:              402

Satellite: METEOR 3-5
Catalog number: 21655
Epoch time:      103041.54524583
Element set:     498 
Inclination:       82.5543 deg
RA of node:        44.5280 deg
Eccentricity:    0.0012415
Arg of perigee:   215.8451 deg
Mean anomaly:     144.1839 deg
Mean motion:   13.16980377 rev/day
Decay rate:    5.1000E-007 rev/day^2
Epoch rev:           55242
Checksum:              296

Satellite: UARS
Catalog number: 21701
Epoch time:      103041.44759780
Element set:     821 
Inclination:       56.9808 deg
RA of node:        64.9225 deg
Eccentricity:    0.0004807
Arg of perigee:   113.5004 deg
Mean anomaly:     246.6550 deg
Mean motion:   15.02840232 rev/day
Decay rate:    8.7799E-006 rev/day^2
Epoch rev:           62449
Checksum:              306

Satellite: EUTELSAT 2-F3
Catalog number: 21803
Epoch time:      103041.98864584
Element set:     521 
Inclination:        2.5793 deg
RA of node:        89.1993 deg
Eccentricity:    0.0002618
Arg of perigee:   266.0424 deg
Mean anomaly:     162.7814 deg
Mean motion:    1.00276295 rev/day
Decay rate:    1.3699E-006 rev/day^2
Epoch rev:            3692
Checksum:              318

Satellite: INMARSAT 2-F3
Catalog number: 21814
Epoch time:      103040.61165547
Element set:     614 
Inclination:        1.7281 deg
RA of node:        57.9063 deg
Eccentricity:    0.0002567
Arg of perigee:   267.2710 deg
Mean anomaly:     252.2641 deg
Mean motion:    1.00274458 rev/day
Decay rate:    1.2100E-006 rev/day^2
Epoch rev:            4080
Checksum:              253

Satellite: INMARSAT 2-F4
Catalog number: 21940
Epoch time:      103033.80414906
Element set:     568 
Inclination:        2.3665 deg
RA of node:        19.1794 deg
Eccentricity:    0.0001463
Arg of perigee:   307.8659 deg
Mean anomaly:     203.9708 deg
Mean motion:    1.00267475 rev/day
Decay rate:   -3.6100E-006 rev/day^2
Epoch rev:            3952
Checksum:              294

Satellite: EUTELSAT 2-F4
Catalog number: 22028
Epoch time:      103041.99492478
Element set:     329 
Inclination:        1.6976 deg
RA of node:        92.6590 deg
Eccentricity:    0.0006084
Arg of perigee:   236.1086 deg
Mean anomaly:     157.7312 deg
Mean motion:    1.00271999 rev/day
Decay rate:   -9.0999E-007 rev/day^2
Epoch rev:            3170
Checksum:              434

Satellite: OSCAR 23 (KITS
Catalog number: 22077
Epoch time:      103040.23840020
Element set:     153 
Inclination:       66.0868 deg
RA of node:       145.2674 deg
Eccentricity:    0.0015448
Arg of perigee:   276.7072 deg
Mean anomaly:      83.2191 deg
Mean motion:   12.86408059 rev/day
Decay rate:   -3.7000E-007 rev/day^2
Epoch rev:           49310
Checksum:              285

Satellite: ASTRA 1C
Catalog number: 22653
Epoch time:      103041.00000000
Element set:     786 
Inclination:        0.0122 deg
RA of node:       319.8851 deg
Eccentricity:    0.0002995
Arg of perigee:    65.1991 deg
Mean anomaly:     133.7186 deg
Mean motion:    1.00273184 rev/day
Decay rate:    1.2900E-006 rev/day^2
Epoch rev:            3080
Checksum:              237

Satellite: METEOR 2-21
Catalog number: 22782
Epoch time:      103041.43482418
Element set:     514 
Inclination:       82.5465 deg
RA of node:       221.3441 deg
Eccentricity:    0.0022740
Arg of perigee:    12.4685 deg
Mean anomaly:     347.7051 deg
Mean motion:   13.83532033 rev/day
Decay rate:    1.4500E-006 rev/day^2
Epoch rev:           47696
Checksum:              281

Satellite: KITSAT B
Catalog number: 22825
Epoch time:      103041.91006224
Element set:     483 
Inclination:       98.2756 deg
RA of node:        71.9965 deg
Eccentricity:    0.0007649
Arg of perigee:   285.9715 deg
Mean anomaly:      74.0626 deg
Mean motion:   14.28940068 rev/day
Decay rate:    1.5099E-006 rev/day^2
Epoch rev:           48878
Checksum:              451

Satellite: POSAT 1
Catalog number: 22826
Epoch time:      103041.17140771
Element set:     305 
Inclination:       98.2759 deg
RA of node:        72.4073 deg
Eccentricity:    0.0008381
Arg of perigee:   289.0360 deg
Mean anomaly:      70.9911 deg
Mean motion:   14.29162487 rev/day
Decay rate:    1.5699E-006 rev/day^2
Epoch rev:           48872
Checksum:              323

Satellite: ITAMSAT
Catalog number: 22828
Epoch time:      103041.50370842
Element set:     422 
Inclination:       98.2731 deg
RA of node:        72.9873 deg
Eccentricity:    0.0009101
Arg of perigee:   263.3529 deg
Mean anomaly:      96.6625 deg
Mean motion:   14.29505159 rev/day
Decay rate:    1.3699E-006 rev/day^2
Epoch rev:           45697
Checksum:              325

Satellite: EYESAT A
Catalog number: 22829
Epoch time:      103041.65432761
Element set:     447 
Inclination:       98.2724 deg
RA of node:        73.7301 deg
Eccentricity:    0.0008916
Arg of perigee:   262.0605 deg
Mean anomaly:      97.9566 deg
Mean motion:   14.29763875 rev/day
Decay rate:    2.1799E-006 rev/day^2
Epoch rev:           48892
Checksum:              346

Satellite: METEOSAT 6
Catalog number: 22912
Epoch time:      103041.98342015
Element set:     675 
Inclination:        2.6574 deg
RA of node:        82.5051 deg
Eccentricity:    0.0000882
Arg of perigee:   234.1423 deg
Mean anomaly:     187.7120 deg
Mean motion:    1.00280377 rev/day
Decay rate:    7.4000E-007 rev/day^2
Epoch rev:            3222
Checksum:              253

Satellite: GOES 8
Catalog number: 23051
Epoch time:      103041.48580315
Element set:     599 
Inclination:        0.2775 deg
RA of node:       103.3427 deg
Eccentricity:    0.0000793
Arg of perigee:   292.0868 deg
Mean anomaly:     204.6219 deg
Mean motion:    1.00279841 rev/day
Decay rate:   -2.4099E-006 rev/day^2
Epoch rev:            3972
Checksum:              297

Satellite: ASTRA 1D
Catalog number: 23331
Epoch time:      103042.01107640
Element set:     814 
Inclination:        0.0641 deg
RA of node:       227.0953 deg
Eccentricity:    0.0003407
Arg of perigee:   116.2764 deg
Mean anomaly:     185.4062 deg
Mean motion:    1.00272529 rev/day
Decay rate:    1.4900E-006 rev/day^2
Epoch rev:            3079
Checksum:              236

Satellite: RADIO ROSTO
Catalog number: 23439
Epoch time:      103038.20708573
Element set:     680 
Inclination:       64.8156 deg
RA of node:        59.8551 deg
Eccentricity:    0.0147092
Arg of perigee:   117.4218 deg
Mean anomaly:     244.1751 deg
Mean motion:   11.27547676 rev/day
Decay rate:   -3.4000E-007 rev/day^2
Epoch rev:           33431
Checksum:              297

Satellite: NOAA 14
Catalog number: 23455
Epoch time:      103042.04061158
Element set:     518 
Inclination:       99.1877 deg
RA of node:        60.4107 deg
Eccentricity:    0.0008614
Arg of perigee:   249.7480 deg
Mean anomaly:     110.2769 deg
Mean motion:   14.13293770 rev/day
Decay rate:    1.1800E-006 rev/day^2
Epoch rev:           41841
Checksum:              290

Satellite: HIMAWARI 5 (GM
Catalog number: 23522
Epoch time:      103042.45141903
Element set:     94 
Inclination:        1.7513 deg
RA of node:        83.3583 deg
Eccentricity:    0.0001732
Arg of perigee:    64.8514 deg
Mean anomaly:     295.3229 deg
Mean motion:    1.00277318 rev/day
Decay rate:    9.9999E-009 rev/day^2
Epoch rev:            2882
Checksum:              305

Satellite: HOT BIRD 1
Catalog number: 23537
Epoch time:      103013.80550721
Element set:     533 
Inclination:        0.0070 deg
RA of node:       236.2796 deg
Eccentricity:    0.0008090
Arg of perigee:    86.9786 deg
Mean anomaly:      92.5958 deg
Mean motion:    1.00275871 rev/day
Decay rate:    1.0700E-006 rev/day^2
Epoch rev:            2861
Checksum:              279

Satellite: GOES 9
Catalog number: 23581
Epoch time:      103038.51389009
Element set:     506 
Inclination:        0.2984 deg
RA of node:       277.9200 deg
Eccentricity:    0.0012483
Arg of perigee:   254.1862 deg
Mean anomaly:       2.0839 deg
Mean motion:    1.00052947 rev/day
Decay rate:    1.3699E-006 rev/day^2
Epoch rev:            2825
Checksum:              293

